Location: Ermatingen
(47.6706°N, 9.0857°E)
Time: 06:21:05
(UTC+00:00)

Cosmos 1937 Rocket - Pass Details

Date: 18 September 2020
Orbit: 747 x 779 km, 74.0° (Epoch: 22 October)

Event Time Altitude Azimuth Distance (km) Brightness Sun altitude
Rises 18:53:50 0° 212° (SSW) 3,234 6.9 -14.8°
Reaches altitude 10° 18:56:14 10° 216° (SW) 2,307 6.2 -15.2°
Maximum altitude 19:01:25 60° 296° (WNW) 878 4.1 -16.0°
Drops below altitude 10° 19:06:35 10° 16° (NNE) 2,301 6.0 -16.8°
Sets 19:08:59 0° 21° (NNE) 3,226 6.8 -17.2°
